www.pogodaiklimat.ru

Погода и климат >> Архив погоды >> Саудовская Аравия >> Al-Jouf


ПОГОДА в Al-Jouf

  • Прогноз погоды в Al-Jouf
  • Монитор погоды в Al-Jouf
  • Климат города

АРХИВ ПОГОДЫ в Al-Jouf

Время (UTC), дата Ветер
(напр.,м/с)
 
Видим.   Явления Облачность Т
(С)
Тd
(С)
f
(%)
Тe
(С)
Тes
(С)
Комфортность P
(гПа)
Po
(гПа)
Тmin
(С)
Tmax
(С)
R
(мм)
R24
(мм)
S
(см)
00 14.09 ЮВ 5 10 км ясно +29.9 -1.0 13 +27 +27 жарко 1004.4 933.7
03 14.09 ЮЗ 4 10 км ясно +28.8 -1.0 14 +26 +26 жарко 1006.2 934.8
06 14.09 З 3 10 км ясно +33.1 +1.0 13 +30 +37 жарко 1006.9 935.4 +28.5
09 14.09 З 4 5000 м пыль ясно +37.1 +6.0 15 +35 +46 очень
жарко
1006.5 935.1
12 14.09 З 5 4000 м пыль ясно +38.8 +7.0 14 +36 +42 очень
жарко
1005.3 933.9
15 14.09 З 3 9000 м пыль ясно +38.3 +5.0 13 +35 +36 очень
жарко
1005.2 933.9
18 14.09 З 6 10 км ясно +33.0 +8.0 21 +31 +31 жарко 1006.6 935.1 +39.2
21 14.09 СЗ 4 10 км ясно +31.5 +7.0 22 +30 +30 жарко 1007.0 935.7
00 15.09 СЗ 5 10 км ясно +28.7 +7.0 25 +28 +28 жарко 1007.0 935.5
03 15.09 СЗ 4 10 км ясно +26.6 +6.0 27 +26 +26 жарко 1008.3 936.2
06 15.09 С 3 10 км ясно +29.1 +8.0 27 +29 +35 жарко 1010.0 937.6 +26.5
09 15.09 В 3 10 км ясно +35.3 +9.0 20 +34 +48 очень
жарко
1008.3 936.5
12 15.09 ЮВ 4 9000 м пыль ясно +38.6 +7.0 15 +36 +44 очень
жарко
1006.8 935.1
15 15.09 СВ 2 10 км ясно +37.2 +7.0 16 +35 +35 очень
жарко
1006.9 935.0
18 15.09 В 2 10 км ясно +33.6 +7.0 19 +32 +32 жарко 1008.0 936.1 +38.7
21 15.09 В 2 10 км ясно +30.6 +5.0 20 +29 +29 жарко 1007.4 935.8
00 16.09 В 2 10 км ясно +28.7 +7.0 25 +28 +28 жарко 1007.3 935.8
03 16.09 В 3 10 км ясно +26.2 +6.0 27 +26 +26 жарко 1008.3 936.1
06 16.09 ЮВ 3 10 км 4/0
[Ac trans]
+30.3 +7.0 23 +29 +33 жарко 1009.3 937.1 +26.2
09 16.09 ЮВ 4 10 км ясно +37.7 +7.0 15 +35 +46 очень
жарко
1007.4 935.9
12 16.09 Ю 6 10 км ясно +41.7 +3.0 9 +38 +43 очень
жарко
1004.9 933.8
15 16.09 ЮЗ 3 10 км 4/0
[Ac trans]
+40.5 +1.0 9 +37 +37 очень
жарко
1004.3 932.9
18 16.09 ЮВ 4 10 км 5/3 1200 м
[Cu hum Ac trans]
+35.6 +3.0 13 +32 +32 жарко 1005.1 933.9 +41.7
21 16.09 Ю 4 10 км 3/0
[Ac trans]
+32.5 +2.0 14 +29 +29 жарко 1005.2 934.3
00 17.09 Ю 4 10 км ясно +29.1 +6.0 23 +28 +28 жарко 1004.4 933.4
03 17.09 ЮЗ 3 10 км ясно +26.7 +6.0 27 +26 +26 жарко 1005.7 933.9
06 17.09 штиль 0 10 км ясно +29.4 +8.0 26 +29 +38 жарко 1006.5 934.6 +26.7
09 17.09 ЮЗ 4 10 км ясно +36.5 +6.0 15 +34 +45 очень
жарко
1004.9 933.7
12 17.09 З 3 10 км ясно +39.6 +6.0 13 +37 +45 очень
жарко
1003.4 932.2
15 17.09 СЗ 4 10 км ясно +38.2 +6.0 14 +36 +36 очень
жарко
1003.3 931.8
18 17.09 С 2 10 км ясно +33.4 +7.0 19 +31 +31 жарко 1004.2 932.7 +40.2
21 17.09 штиль 0 10 км ясно +31.4 +7.0 22 +30 +30 жарко 1003.5 932.5
00 18.09 З 2 10 км ясно +29.1 +9.0 28 +29 +29 жарко 1002.7 931.7
03 18.09 ЮЗ 3 10 км ясно +25.1 +9.0 36 +26 +26 жарко 1004.5 932.5
06 18.09 ЮЗ 4 10 км ясно +30.9 +8.0 24 +30 +35 жарко 1005.5 933.6 +25.1
09 18.09 ЮЗ 4 10 км ясно +39.2 +4.0 11 +36 +48 очень
жарко
1003.9 932.8
12 18.09 З 7 10 км ясно +42.3 0.0 7 +38 +42 очень
жарко
1002.0 931.1
15 18.09 СЗ 6 10 км ясно +39.1 +4.0 12 +36 +36 очень
жарко
1003.4 931.8
18 18.09 штиль 0 10 км ясно +34.2 +4.0 15 +31 +31 жарко 1004.3 933.0 +42.3
21 18.09 Ю 2 10 км ясно +29.8 +4.0 19 +28 +28 жарко 1004.5 933.6
00 19.09 СЗ 2 10 км ясно +28.3 +6.0 24 +27 +27 жарко 1004.9 933.7
03 19.09 ЮЗ 2 10 км 4/4 1200 м
[Sc]
+27.1 +8.0 30 +27 +27 жарко 1007.2 935.3
06 19.09 СЗ 3 10 км ясно +30.0 +6.0 22 +29 +34 жарко 1008.5 936.2 +26.6
09 19.09 З 2 10 км ясно +36.5 +5.0 14 +34 +50 очень
жарко
1007.2 935.4
12 19.09 З 4 10 км ясно +39.1 +6.0 13 +36 +43 очень
жарко
1005.4 934.0
15 19.09 З 6 10 км ясно +36.7 +4.0 13 +34 +34 очень
жарко
1006.1 934.2
18 19.09 СЗ 3 10 км ясно +31.4 +4.0 18 +29 +29 жарко 1007.6 935.6 +39.1
21 19.09 СЗ 2 10 км ясно +28.9 +3.0 19 +27 +27 жарко 1007.0 935.4
00 20.09 СЗ 3 10 км ясно +26.2 +2.0 21 +25 +25 комфорт 1006.9 935.1
03 20.09 СЗ 4 10 км 4/0
[Ac trans Cs]
+25.1 +4.0 26 +24 +24 комфорт 1008.1 935.7
06 20.09 СЗ 3 10 км ясно +28.9 +7.0 25 +28 +34 жарко 1009.8 937.1 +25.1
09 20.09 СЗ 2 10 км 3/0
[Ac trans]
+35.6 +5.0 15 +33 +47 жарко 1008.7 936.6
12 20.09 Ю 2 10 км ясно +38.9 +5.0 13 +36 +46 очень
жарко
1006.6 934.8
15 20.09 СЗ 2 10 км ясно +37.4 +4.0 13 +34 +35 очень
жарко
1006.5 934.5
18 20.09 штиль 0 10 км ясно +33.7 +4.0 16 +31 +31 жарко 1007.4 935.5 +38.9
21 20.09 штиль 0 10 км ясно +30.3 +5.0 20 +28 +28 жарко 1006.5 935.1

 

Местоположение метеостанции Al-Jouf (Саудовская Аравия): широта 29.78 долгота 40.10 высота над уровнем моря 689 м.

В архиве по умолчанию представлена погода в Al-Jouf за последнюю неделю. Архивные данные за месяц целиком и за предыдущие месяцы, начиная с января 2011 года, Вы можете получить, выбрав интересующий диапазон дат из раскрывающегося списка и нажав кнопку "Ввод!".


*Определитесь, кто Вы:
робот инопланетянин человек

Внимание! Время в таблицах - всемирное. Для получения местного времени необходимо прибавить поправку, которая в Al-Jouf равна 3 ч.

Смотрите также архив погоды в соседних городах и на ближайших метеорологических станциях:

Погода в Arar (Саудовская Аравия) (159 км)
Погода в Turaif (Саудовская Аравия) (249 км)
Погода в Hail (Саудовская Аравия) (304 км)
Погода в Al-Nukhib (Ирак) (324 км)
Погода в Gurayat (Саудовская Аравия) (325 км)
Погода в Rafha (Саудовская Аравия) (327 км)
Погода в Ruwaished (Иордания) (352 км)
Погода в Rutbah (Ирак) (362 км)
Погода в Tabuk (Саудовская Аравия) (374 км)
Погода в Safawi (Иордания) (391 км)

Пояснения к столбцам:

Ветер - указаны скорость ветра в м/с - средняя за 10 мин, порывы в срок и между сроками (в фигурных скобках) и направление, откуда дует ветер: С - северный, СВ - северо-восточный, В - восточный, ЮВ - юго-восточный, Ю - южный, ЮЗ - юго-западный, З - западный, СЗ - северо-западный.
Видимость - горизонтальная дальность видимости в метрах или километрах. При видимости от 1 до 10 км при отсутствии осадков обычно наблюдается дымка, при ухудшении видимости до 1 км и менее - туман. В сухую погоду видимость может ухудшаться дымом, пылью или мглою.
Явления - указаны атмосферные явления, наблюдавшиеся в срок или в последний час перед сроком; фигурными скобками обозначены явления, наблюдавшиеся между сроками (за 1-3 часа до срока); квадратными скобками обозначены град или гололедные отложения с указанием их диаметра в мм.
Облачность - указаны через наклонную черту общая и нижняя облачность в баллах и высота нижней границы облаков в метрах; квадратными скобками обозначены формы облаков: Ci - перистые, Cs - перисто-слоистые, Cc - перисто-кучевые, Ac - высококучевые, As - высокослоистые, Sc - слоисто-кучевые, Ns - слоисто-дождевые, Cu - кучевые, Cb - кучево-дождевые. Подробнее классификацию облаков см. в Атласе облаков (PDF).
T - Температура воздуха - температура, измеренная на высоте 2 м над землей.
Td - Температура точки росы - температура, при понижении до которой содержащийся в воздухе водяной пар достигнет насыщения.
f - Относительная влажность воздуха - влажноcть воздуха, измеренная на высоте 2 м над землей.
Te - Эффективная температура - температура, которую ощущает одетый по сезону человек в тени. Характеристика душности погоды. При расчете учитывается влияние влажности воздуха и скорости ветра на теплоощущения человека.
Tes - Эффективная температура на солнце - температура, которую ощущает человек, с поправкой на солнечный нагрев. Характеристика знойности погоды. Зависит от высоты солнца над горизонтом, облачности и скорости ветра. Ночью, в пасмурную погоду, а также при ветре 12 м/с и более поправка равна нулю.
P - Атмосферное давление - приведенное к уровню моря атмосферное давление.
Po - Атмосферное давление - измеренное на уровне метеостанции атмосферное давление.
Tmin - Минимальная температура - минимум температуры воздуха на высоте 2 м над землей.
Tmax - Максимальная температура - максимум температуры воздуха на высоте 2 м над землей.
R - Количество осадков - Количество выпавших осадков за период времени, мм. При наведении курсора мыши на число - период времени, за который выпало указанное количество осадков.
R24 - Количество осадков - Количество выпавших осадков за 24 часа, мм.
S - Снежный покров - Высота снежного покрова, см. При наведении курсора мыши на число - состояние снежного покрова и степень покрытия местности в баллах.